EW8553 Weather Reports


Display with metric or nautical units.
time (UTC)temp
F
wind
direction
speed
MPH
gust
MPH
rain 1hr
in
rain 24hr
in
rain mn
in
humidity
%
barometer
mb
20191016114657 38 333 4.0 8.0 0.00 0.00 0.00 86 1021.1
20191016113212 38 318 3.0 8.0 0.00 0.00 0.00 86 1021.2
20191016111705 38 330 4.0 11.0 0.00 0.00 0.00 86 1021.2
20191016110119 38 326 6.0 11.0 0.00 0.00 0.00 86 1021.2
20191016104632 38 339 6.0 11.0 0.00 0.00 0.00 85 1021.3
20191016103144 38 322 7.0 11.0 0.00 0.00 0.00 85 1021.3
20191016101611 38 329 7.0 13.0 0.00 0.00 0.00 85 1021.3
20191016100103 38 350 8.0 16.0 0.00 0.00 0.00 84 1021.5
20191016094609 39 346 8.0 14.0 0.00 0.00 0.00 83 1021.5
20191016093040 39 332 7.0 14.0 0.00 0.00 0.00 84 1021.4
20191016091636 38 350 7.0 12.0 0.00 0.00 0.00 86 1021.3
20191016090138 39 326 7.0 13.0 0.00 0.00 0.00 87 1021.2
20191016084541 39 328 8.0 14.0 0.00 0.00 0.00 86 1021.1
20191016083057 39 349 7.0 11.0 0.00 0.00 0.00 86 1021.1
20191016081609 39 327 8.0 16.0 0.00 0.00 0.00 86 1021.0
20191016080040 39 327 9.0 16.0 0.00 0.00 0.00 85 1021.0
20191016074604 40 326 7.0 16.0 0.00 0.00 0.00 84 1020.8
20191016073031 40 352 9.0 15.0 0.00 0.00 0.00 84 1020.4
20191016071526 40 344 8.0 15.0 0.00 0.00 0.00 84 1020.4
20191016070021 40 339 8.0 17.0 0.00 0.00 0.00 83 1020.3
20191016064527 40 338 10.0 17.0 0.00 0.00 0.00 83 1020.3
20191016063021 40 333 9.0 15.0 0.00 0.00 0.00 85 1020.4
20191016061537 40 348 9.0 16.0 0.00 0.00 0.00 85 1020.3
20191016060022 40 354 9.0 16.0 0.00 0.00 0.00 86 1020.3
20191016054511 41 334 12.0 18.0 0.00 0.00 0.00 86 1020.3
20191016053007 41 329 8.0 14.0 0.00 0.00 0.00 87 1020.3
20191016051740 41 332 10.0 14.0 0.00 0.00 0.00 87 1020.2
20191016050236 41 326 8.0 16.0 0.00 0.00 0.00 88 1020.0
20191016044645 41 338 8.0 13.0 0.00 0.00 0.00 88 1019.8
20191016043130 41 323 9.0 16.0 0.00 0.00 0.00 89 1019.6
20191016041654 41 325 8.0 15.0 0.00 0.00 0.00 89 1019.5
20191016040305 41 331 11.0 18.0 0.00 0.00 0.00 90 1019.4
20191016034642 41 309 10.0 18.0 0.00 0.00 0.00 90 1019.1
20191016033232 41 314 9.0 16.0 0.00 0.00 0.00 91 1019.4
20191016031632 41 329 9.0 17.0 0.00 0.00 0.00 91 1019.2
20191016030153 41 334 10.0 17.0 0.00 0.00 0.00 91 1019.2
20191016024713 42 332 9.0 18.0 0.00 0.00 0.00 90 1019.0
20191016023140 42 328 8.0 16.0 0.00 0.00 0.00 88 1018.7
20191016021620 42 266 9.0 14.0 0.00 0.00 0.00 87 1018.5
20191016020139 42 342 7.0 12.0 0.00 0.00 0.00 87 1018.3
20191016014601 42 341 7.0 14.0 0.00 0.00 0.00 86 1018.2
20191016013119 42 306 6.0 16.0 0.00 0.00 0.00 86 1018.2
20191016011605 42 295 8.0 16.0 0.00 0.00 0.00 86 1018.1
20191016010129 42 312 6.0 18.0 0.00 0.00 0.00 86 1018.1
20191016004619 42 330 6.0 13.0 0.00 0.00 0.00 86 1017.7
20191016003102 42 342 6.0 12.0 0.00 0.00 0.00 86 1017.6
20191016001649 42 328 8.0 14.0 0.00 0.00 0.00 85 1017.5
20191016000055 42 334 9.0 17.0 0.00 0.00 0.00 85 1017.4
20191015234657 42 339 10.0 17.0 0.00 0.00 0.00 85 1017.3
20191015233050 42 320 9.0 16.0 0.00 0.00 0.00 84 1017.2
20191015231558 42 339 11.0 19.0 0.00 0.00 0.00 83 1017.0
20191015230048 42 341 11.0 20.0 0.00 0.00 0.00 83 1016.6
20191015224540 43 290 10.0 18.0 0.00 0.00 0.00 82 1016.4
20191015223032 43 328 7.0 18.0 0.00 0.00 0.00 82 1016.2
20191015221602 43 349 10.0 19.0 0.00 0.00 0.00 81 1016.0
20191015220049 43 352 12.0 18.0 0.00 0.00 0.00 80 1015.8
20191015214519 43 345 11.0 19.0 0.00 0.00 0.00 80 1015.6
20191015213056 43 314 14.0 22.0 0.00 0.00 0.00 80 1015.3
20191015211538 44 335 9.0 19.0 0.00 0.00 0.00 79 1015.1
20191015210045 44 323 11.0 18.0 0.00 0.00 0.00 79 1014.9
20191015204536 44 323 10.0 22.0 0.00 0.00 0.00 79 1014.7
20191015203017 44 336 13.0 20.0 0.00 0.00 0.00 78 1014.4
20191015201529 44 330 11.0 21.0 0.00 0.00 0.00 78 1014.3
20191015200003 44 359 9.0 19.0 0.00 0.00 0.00 77 1013.9
20191015194845 45 339 12.0 22.0 0.00 0.00 0.00 76 1013.7
20191015193255 45 325 12.0 18.0 0.00 0.00 0.00 76 1013.5
20191015191656 45 301 12.0 22.0 0.00 0.00 0.00 75 1013.3
20191015190210 45 302 12.0 23.0 0.00 0.00 0.00 76 1013.3
20191015184647 45 314 13.0 22.0 0.00 0.00 0.00 77 1013.2
20191015183201 44 329 12.0 20.0 0.00 0.00 0.00 78 1013.1
20191015181725 45 324 13.0 20.0 0.00 0.00 0.00 78 1013.0
20191015180218 44 316 12.0 21.0 0.00 0.00 0.00 79 1013.0
20191015174623 44 340 10.0 19.0 0.00 0.00 0.00 79 1013.1
20191015173126 44 327 11.0 18.0 0.00 0.00 0.00 80 1013.0
20191015171633 44 329 12.0 21.0 0.00 0.00 0.00 79 1012.8
20191015170157 44 298 14.0 23.0 0.00 0.00 0.00 79 1012.8
20191015164648 44 328 9.0 20.0 0.00 0.00 0.00 80 1012.6
20191015163202 44 304 10.0 22.0 0.00 0.00 0.00 79 1012.5
20191015161557 44 321 11.0 22.0 0.00 0.00 0.00 80 1012.4
20191015160113 44 308 9.0 22.0 0.00 0.00 0.00 80 1012.3
20191015154547 44 337 10.0 18.0 0.00 0.00 0.00 81 1012.1
20191015153148 44 326 13.0 21.0 0.00 0.00 0.00 79 1011.9
20191015151546 44 314 9.0 18.0 0.00 0.00 0.00 79 1011.7
20191015150127 42 323 9.0 20.0 0.00 0.00 0.00 81 1011.8
20191015144558 41 309 9.0 21.0 0.00 0.00 0.00 83 1011.7
20191015143038 40 328 8.0 15.0 0.00 0.00 0.00 85 1011.5
20191015141557 39 290 6.0 13.0 0.00 0.00 0.00 89 1011.2
20191015140056 37 316 5.0 12.0 0.00 0.00 0.00 91 1010.8
20191015134537 35 319 5.0 12.0 0.00 0.00 0.00 91 1010.8
20191015133048 35 299 5.0 10.0 0.00 0.00 0.00 91 1010.7
20191015131537 35 319 6.0 13.0 0.00 0.00 0.00 91 1010.3
20191015130137 35 325 5.0 12.0 0.00 0.00 0.00 91 1010.1
20191015124603 35 315 5.0 9.0 0.00 0.00 0.00 91 1009.9
20191015123007 35 336 4.0 9.0 0.00 0.00 0.00 91 1009.9
20191015121542 35 315 2.0 10.0 0.00 0.00 0.00 91 1010.0
20191015120038 35 276 4.0 9.0 0.00 0.00 0.00 91 1009.8